Regional Weather Roundup
Issued by NWS

Home | Current Version | Previous Version | Graphics & Text | Print | Product List | Glossary On
Versions: 1 2 3 4 5 6 7 8 9 10 11 12 13 14 15 16 17 18 19 20 21 22 23 24 25 26 27 28 29 30 31 32 33 34 35 36 37 38 39 40 41 42 43 44 45 46 47 48 49 50
000
ASUS43 KOAX 221802
RWRNE

WEATHER ROUNDUP FOR NEBRASKA
NATIONAL WEATHER SERVICE OMAHA NE
1200 PM CST SUN JAN 22 2017

NOTES: SATELLITE DATA IS BEING USED TO AUGMENT CLOUD COVER ABOVE
       12000 FEET.
       "FAIR" INDICATES FEW OR NO CLOUDS BELOW 12,000 FEET WITH NO
       SIGNIFICANT WEATHER AND/OR OBSTRUCTIONS TO VISIBILITY.

  * THESE STATIONS DO NOT REPORT WEATHER SUCH AS RAIN...SNOW OR FOG.

NEZ001>004-019>022-054>056-221900-
NEBRASKA PANHANDLE

CITY           SKY/WX    TMP DP  RH WIND       PRES   REMARKS
SCOTTSBLUFF    SUNNY     40  23  50 NW15      29.92S WCI  32
6HR MIN TEMP:  22; 6HR MAX TEMP:  40;

ALLIANCE       SUNNY     39  26  59 W16       29.88S WCI  30
6HR MIN TEMP:  18; 6HR MAX TEMP:  39;

CHADRON        CLOUDY    34  27  75 W5        29.90R WCI  30
6HR MIN TEMP:  22; 6HR MAX TEMP:  34;

SIDNEY         SUNNY     42  21  43 NW22G33   29.91S
6HR MIN TEMP:  25; 6HR MAX TEMP:  43;

$$

NEZ057>060-069>072-079>082-221900-
SOUTHWEST NEBRASKA

CITY           SKY/WX    TMP DP  RH WIND       PRES   REMARKS
NORTH PLATTE   SUNNY     43  31  62 W10       29.88F
6HR MIN TEMP:  22; 6HR MAX TEMP:  43;

IMPERIAL       SUNNY     42  27  55 NW16      29.90F
6HR MIN TEMP:  28; 6HR MAX TEMP:  42;

LEXINGTON      SUNNY     43  32  67 NW12      29.86F
MCCOOK         SUNNY     44  30  57 NW14      29.89S
6HR MIN TEMP:  25; 6HR MAX TEMP:  44;

OGALLALA       SUNNY     42  29  62 NW16G22   29.89F
$$

NEZ005>010-023>029-035>040-094-221900-
NORTH CENTRAL NEBRASKA

CITY           SKY/WX    TMP DP  RH WIND       PRES   REMARKS
VALENTINE      SUNNY     40  28  62 NW16      29.85S WCI  31
6HR MIN TEMP:  21; 6HR MAX TEMP:  40;

AINSWORTH      SUNNY     39  30  70 NW17      29.84F WCI  30
BROKEN BOW     SUNNY     43  32  65 NW13      29.84S
6HR MIN TEMP:  31; 6HR MAX TEMP:  43;

O`NEILL        SUNNY     39  29  68 NW10      29.83F WCI  32
ORD            SUNNY     41  31  67 NW13      29.83S
6HR MIN TEMP:  27; 6HR MAX TEMP:  41;

THEDFORD       SUNNY     44  32  64 NW10      29.86F
$$

NEZ041-046>049-061>064-073>077-083>087-221900-
SOUTH CENTRAL NEBRASKA

CITY           SKY/WX    TMP DP  RH WIND       PRES   REMARKS
GRAND ISLAND   SUNNY     39  30  70 N14       29.85R WCI  31
6HR MIN TEMP:  26; 6HR MAX TEMP:  39;

AURORA         SUNNY     37  32  82 N13       29.84S WCI  28
HASTINGS       SUNNY     40  30  67 N15       29.85R WCI  32
6HR MIN TEMP:  31; 6HR MAX TEMP:  40;

HEBRON         PTSUNNY   37  31  81 N15       29.83S WCI  27
HOLDREGE       SUNNY     40  29  65 NW13      29.86S WCI  33
KEARNEY *      SUNNY    N/A N/A N/A MISG        N/A
YORK           MOSUNNY   32  32 100 N8        29.84S WCI  25
$$

NEZ011>018-030>034-042>045-221900-
NORTHEAST NEBRASKA

CITY           SKY/WX    TMP DP  RH WIND       PRES   REMARKS
NORFOLK        CLOUDY    31  29  92 NW10      29.82S WCI  22
6HR MIN TEMP:  29; 6HR MAX TEMP:  31;

ALBION         MOSUNNY   37  21  53 NW12G18   29.82S WCI  29
BLAIR          CLOUDY    35  32  89 NW8       29.79S WCI  28
FREMONT        CLOUDY    36  33  92 NW12G17   29.82S WCI  27
TEKAMAH        CLOUDY    35  31  85 NW12      29.81R WCI  27
6HR MIN TEMP:  32; 6HR MAX TEMP:  35;

WAYNE          CLOUDY    33  31  94 NW12      29.82S WCI  24
$$

NEZ050>053-065>068-078-088>093-221900-
SOUTHEAST NEBRASKA

CITY           SKY/WX    TMP DP  RH WIND       PRES   REMARKS
LINCOLN        CLOUDY    37  31  78 NW15      29.83S WCI  28
6HR MIN TEMP:  24; 6HR MAX TEMP:  37;

OMAHA EPPLEY   CLOUDY    36  30  79 NW13      29.79F WCI  27
6HR MIN TEMP:  32; 6HR MAX TEMP:  36;

BEATRICE       CLOUDY    36  33  89 NW14      29.80F WCI  27
FALLS CITY     CLOUDY    34  31  88 N9        29.78S WCI  27
6HR MIN TEMP:  31; 6HR MAX TEMP:  34;

NEBRASKA CITY  CLOUDY    35  32  88 NW12      29.78F WCI  27
PLATTSMOUTH    CLOUDY    36  31  82 NW15      29.78S WCI  26
$$

NEZ044-045-051>053-067-221900-
OMAHA AREA

CITY           SKY/WX    TMP DP  RH WIND       PRES   REMARKS
OMAHA EPPLEY   CLOUDY    36  30  79 NW13      29.79F WCI  27
6HR MIN TEMP:  32; 6HR MAX TEMP:  36;

BLAIR          CLOUDY    35  32  89 NW8       29.79S WCI  28
FREMONT        CLOUDY    36  33  92 NW12G17   29.82S WCI  27
MILLARD        CLOUDY    38  33  81 NW13G20   29.80S WCI  30
OFFUTT AFB     CLOUDY    38  37  97 NW15      29.78S WCI  29
PLATTSMOUTH    CLOUDY    36  31  82 NW15      29.78S WCI  26
WAHOO          CLOUDY    34  32  91 NW12      29.82S WCI  26
$$




USA.gov is the U.S. government's official web portal to all federal, state and local government web resources and services.